Overview Statistics Trail Chart Weather Telemetry Raw packets
 

This is the latest recevied weather packets stored in our database for station/object KG5VSR. If no packets are shown the sender has not sent any weather packets the latest 10 day(s).

<< 1 2 3 4 5 6 >>
Time Temp. Humidity Pressure Rain* Wind** Luminosity Snow
1788592563 28.33° C 76% 1013.8 hPa 0 mm - 0 W/m² -
1788590759 28.33° C 76% 1014.1 hPa 0 mm - 0 W/m² -
1788588957 28.89° C 74% 1014.1 hPa 0 mm - 0 W/m² -
1788587155 29.44° C 72% 1013.9 hPa 0 mm - 0 W/m² -
1788585353 30° C 69% 1013.7 hPa 0 mm - 0 W/m² -
1788583549 30.56° C 68% 1013.8 hPa 0 mm - 0 W/m² -
1788581746 31.11° C 66% 1013.7 hPa 0 mm - 0 W/m² -
1788579945 31.67° C 63% 1013.7 hPa 0 mm - 0 W/m² -
1788578143 31.67° C 61% 1013.7 hPa 0 mm - 0 W/m² -
1788576342 32.22° C 59% 1013.5 hPa 0 mm - 0 W/m² -
1788574538 32.22° C 59% 1013.1 hPa 0 mm - 0 W/m² -
1788572734 32.78° C 57% 1012.5 hPa 0 mm - 0 W/m² -
1788570931 33.89° C 54% 1012.2 hPa 0 mm - 0 W/m² -
1788569132 33.89° C 53% 1011.8 hPa 0 mm - 1 W/m² -
1788567326 35° C 50% 1011.5 hPa 0 mm - 19 W/m² -
1788565524 35.56° C 49% 1011.5 hPa 0 mm - 44 W/m² -
1788563723 36.11° C 49% 1011.4 hPa 0 mm - 141 W/m² -
1788561922 36.11° C 50% 1011.4 hPa 0 mm - 254 W/m² -
1788560120 37.22° C 50% 1011.6 hPa 0 mm - 347 W/m² -
1788558319 36.67° C 49% 1011.7 hPa 0 mm - 442 W/m² -
1788556515 37.78° C 47% 1012.3 hPa 0 mm - 574 W/m² -
1788554712 36.67° C 49% 1012.4 hPa 0 mm - 123 W/m² -
1788552909 37.22° C 49% 1012.7 hPa 0 mm - 651 W/m² -
1788551109 37.78° C 48% 1013.1 hPa 0 mm - 677 W/m² -
1788549304 36.67° C 50% 1013.4 hPa 0 mm - 626 W/m² -

* Rain latest hour (hover to see other rain measurements)
** Current wind speed in m/s (hover to see current wind gust speed)